Wind_Speed
14 14 14 14 13 13 14 14 15 15 16 16 16 16 16 16 15 15 16 16 16 17 17 17 18 18 18 18 19 19 19 20 19 19 20 21 22 22 22 22 23 24 24
15 15 15 15 14 15 15 15 16 17 17 18 18 17 18 18 17 17 17 17 17 17 18 18 19 19 19 20 20 20 21 21 21 22 22 22 23 24 24 24 25 25 25
16 16 16 16 16 16 17 17 18 18 18 18 18 18 18 18 18 18 18 18 18 18 19 20 20 20 20 20 21 22 23 23 24 24 24 24 24 25 25 26 26 26 26
18 18 18 17 17 18 18 19 19 19 19 19 18 19 19 19 19 19 19 19 19 19 20 21 21 21 22 22 23 23 24 24 25 25 24 24 25 25 26 26 26 27 27
18 19 19 19 19 19 20 20 21 20 20 20 20 20 20 21 20 21 20 20 20 21 21 21 22 22 23 24 24 24 24 25 25 25 25 25 25 25 26 27 27 27 27
20 20 20 21 21 21 21 21 21 21 22 22 22 22 22 21 21 21 21 21 21 22 22 22 23 23 23 24 24 24 24 25 25 25 25 25 25 26 27 28 27 27 26
21 20 21 21 22 22 22 23 23 23 23 24 25 24 24 24 23 22 21 22 22 22 23 23 23 23 24 24 24 24 25 26 27 26 26 26 27 27 27 28 28 28 28
21 22 22 23 23 23 24 24 24 24 25 25 25 25 24 24 23 23 22 22 23 23 23 23 23 23 23 23 24 24 25 26 27 27 27 27 28 28 28 29 29 29 29
23 23 24 24 24 24 24 25 25 25 26 26 25 25 24 24 24 24 24 23 23 24 24 24 24 24 24 24 25 25 25 25 25 26 27 28 29 29 29 29 29 29 29
24 24 25 25 25 25 25 25 25 26 26 26 26 25 26 25 25 24 25 24 24 25 25 25 24 24 25 26 27 26 26 26 26 27 28 29 29 30 29 29 30 29 30
26 26 26 26 26 26 26 26 26 26 27 26 26 26 26 26 26 26 26 25 25 25 25 25 25 26 26 26 27 27 27 27 27 28 29 29 29 30 30 30 30 30 30
27 27 28 27 27 27 26 26 26 27 27 27 27 27 26 26 26 26 26 25 25 26 25 25 26 26 27 27 26 27 28 28 29 29 29 30 30 31 31 31 31 31 31
28 28 28 28 27 26 26 26 27 27 27 28 27 27 26 27 26 26 26 26 26 26 25 25 26 26 26 26 26 27 28 29 30 30 30 30 30 30 30 31 31 31 31
29 28 28 28 28 28 27 27 27 28 28 27 27 27 27 26 27 26 27 26 26 26 25 25 25 25 26 27 27 28 29 29 29 29 29 30 31 30 30 30 30 30 30
29 28 28 28 28 28 27 28 28 28 28 28 28 28 27 27 27 27 26 26 26 26 26 26 26 26 27 27 28 29 29 29 30 30 30 30 30 29 29 29 29 30 29
29 28 28 28 27 27 27 27 28 28 28 28 28 29 28 27 26 26 25 25 26 26 26 27 27 27 27 28 29 29 29 29 29 30 30 30 30 29 29 29 29 29 28
29 28 28 28 27 27 28 28 28 28 28 28 28 28 28 28 27 27 27 27 27 27 28 27 28 28 29 29 29 29 29 28 29 29 29 29 28 28 28 28 28 28 27
29 28 28 28 28 28 29 28 28 28 28 27 28 28 28 28 27 27 28 28 28 28 28 28 28 28 28 28 28 28 28 28 28 29 29 27 26 26 26 26 27 27 27
28 28 28 29 29 29 29 29 29 29 28 28 28 28 28 28 27 28 28 28 28 28 28 27 28 28 28 27 27 27 27 28 28 28 27 26 26 25 25 25 26 26 27
28 29 29 29 29 30 30 30 29 29 29 28 29 28 28 28 28 28 27 27 27 27 27 27 27 28 27 27 27 27 27 27 27 27 26 26 26 25 25 25 26 27 27
29 29 29 29 29 30 30 29 29 29 28 29 29 28 28 28 29 28 28 27 27 27 27 27 28 27 27 27 27 27 27 27 26 26 26 26 26 26 26 26 27 27 27
29 29 28 28 28 28 28 28 28 28 28 29 28 28 28 28 28 28 28 28 28 28 27 27 27 27 27 27 27 26 26 26 25 25 25 26 26 26 26 26 27 27 26
28 28 28 28 28 28 28 28 28 28 28 28 28 28 28 27 27 27 28 27 27 27 27 27 27 27 27 27 27 26 26 25 24 24 25 25 25 25 25 25 25 25 25
27 27 27 27 28 28 28 28 28 28 28 28 28 27 28 28 28 27 26 26 26 27 27 26 26 25 25 26 26 26 25 25 24 24 24 24 23 23 23 24 24 24 24
26 26 26 26 26 26 26 26 26 26 26 26 27 27 28 28 28 27 26 26 26 26 26 26 26 26 26 26 26 25 24 24 24 23 23 23 23 23 23 23 23 24 24
26 26 25 25 25 25 25 25 25 25 26 26 26 27 27 27 27 26 26 26 25 24 24 24 25 25 25 25 25 25 25 24 24 23 24 24 24 24 24 24 23 23 23
Wind_Direction
328 326 322 317 312 310 309 309 307 304 303 303 303 302 301 301 296 294 292 287 283 281 279 278 277 277 277 275 275 275 275 275 274 273 273 271 271 271 272 272 272 272 272
320 319 318 318 312 309 307 305 305 305 302 299 299 300 298 298 298 296 293 288 284 280 278 278 278 278 278 277 275 275 275 274 274 274 273 274 272 273 272 271 272 272 272
316 315 315 314 313 310 308 306 305 304 302 300 298 298 299 298 298 297 295 291 286 282 278 276 276 277 278 278 277 276 276 275 275 275 274 275 275 273 272 272 272 271 271
313 312 309 309 309 309 308 307 306 303 301 300 299 298 298 297 297 297 296 292 288 284 280 278 277 277 276 277 277 277 276 276 275 276 275 276 274 273 272 272 273 270 269
307 308 307 306 306 306 305 304 303 302 301 301 300 298 296 295 294 295 293 291 290 286 283 281 279 279 278 278 277 276 275 276 276 276 275 276 276 274 273 273 275 272 269
305 305 305 304 304 305 306 306 303 302 302 301 300 297 296 294 293 289 288 288 287 287 284 283 281 279 281 282 280 278 276 276 276 276 277 276 275 276 276 274 275 272 270
302 303 304 303 303 303 303 304 303 302 301 300 298 296 294 293 292 289 287 288 288 288 286 284 282 280 280 281 281 280 279 277 276 277 276 276 275 276 276 276 275 272 270
302 302 303 303 302 301 301 302 302 301 300 299 297 296 294 292 289 287 287 289 290 289 288 285 282 280 282 283 283 282 281 278 276 276 277 276 276 278 278 279 277 273 272
303 303 302 301 300 300 301 302 302 302 300 299 299 298 296 292 287 285 285 288 289 290 290 286 283 281 282 283 283 283 281 279 277 277 278 277 277 279 280 278 277 274 272
303 302 302 300 299 299 300 301 301 301 300 298 297 298 297 293 289 285 286 287 289 290 289 288 287 285 282 282 283 283 282 281 279 279 279 279 278 279 280 278 276 275 273
303 303 303 301 300 300 300 301 301 300 300 300 299 297 296 294 292 289 288 288 290 292 290 288 287 287 283 284 284 283 282 282 280 280 279 279 278 278 278 277 275 274 273
302 302 302 300 300 299 298 300 301 301 301 299 299 297 296 295 291 289 289 290 291 291 290 289 288 287 285 284 284 283 283 283 284 284 283 282 282 280 278 276 274 271 271
300 300 300 300 299 298 298 298 300 301 301 299 299 298 296 295 293 292 291 291 290 291 290 288 287 287 286 285 284 284 285 284 285 285 285 284 284 281 278 276 274 272 271
299 299 298 298 298 298 297 297 298 299 299 299 297 295 294 294 294 293 291 291 292 293 292 289 289 288 287 287 286 285 285 285 285 285 285 285 284 281 278 276 274 272 272
298 298 298 297 297 297 297 297 297 297 298 298 296 294 293 293 292 293 295 294 295 295 294 292 290 289 288 288 287 286 285 285 285 285 283 283 282 281 279 277 274 272 272
300 299 298 298 297 298 297 298 298 298 298 298 296 295 294 295 295 295 296 297 296 294 293 291 289 289 288 287 288 288 287 286 285 285 284 282 281 280 279 277 275 273 271
301 300 298 298 297 297 298 298 298 297 297 297 296 297 297 298 297 296 297 298 297 296 294 292 291 290 289 289 289 288 288 288 287 286 285 283 282 280 278 276 273 272 271
300 299 297 297 298 298 298 298 297 296 296 298 299 299 299 297 297 297 296 296 295 294 293 293 293 294 291 289 289 289 288 288 288 287 285 283 282 281 278 275 273 271 271
299 298 297 297 297 298 297 297 297 297 297 297 298 298 298 297 297 297 296 295 294 293 291 291 292 292 292 291 291 291 290 290 289 287 286 283 281 280 278 275 273 272 272
300 299 298 298 297 297 297 296 296 295 295 295 295 296 295 295 295 295 295 293 293 293 292 291 291 292 293 294 294 293 293 293 291 289 287 285 281 279 278 277 276 275 274
301 299 298 298 298 298 297 296 294 294 293 293 294 295 295 295 294 294 294 294 294 294 293 292 291 292 293 294 294 294 293 292 291 289 286 285 283 281 278 278 278 277 276
299 299 299 299 299 299 299 297 295 294 294 294 295 295 296 296 294 294 295 295 294 293 292 292 293 292 292 292 293 294 294 292 290 287 286 284 283 281 279 277 277 277 277
300 299 299 300 300 300 298 297 296 296 296 296 295 296 296 297 296 295 295 294 294 294 292 292 292 292 292 291 292 293 293 293 291 289 287 286 286 284 281 279 278 276 275
301 301 302 301 300 300 299 299 299 299 298 297 295 295 296 297 297 297 295 294 294 294 294 293 292 291 292 292 292 292 291 291 290 289 289 288 287 287 284 281 280 276 274
304 305 306 305 304 303 302 301 301 301 301 299 297 296 297 296 297 297 296 295 295 295 295 294 293 292 292 292 292 292 291 290 290 289 288 287 287 286 286 284 281 279 277
306 306 306 306 306 305 304 304 304 304 303 303 301 300 299 298 297 295 295 295 296 296 297 295 294 294 294 293 292 289 288 288 289 290 289 288 288 287 287 285 282 281 281
Height
5874 5872 5870 5867 5866 5864 5862 5861 5859 5858 5856 5854 5852 5851 5849 5847 5846 5844 5842 5840 5839 5838 5838 5837 5836 5835 5834 5834 5833 5832 5832 5831 5831 5831 5830 5829 5829 5828 5828 5827 5827 5827 5826
5871 5869 5867 5864 5862 5861 5859 5857 5855 5854 5852 5850 5848 5846 5844 5843 5841 5839 5837 5835 5834 5833 5832 5831 5830 5829 5828 5828 5827 5826 5826 5825 5825 5824 5823 5822 5822 5821 5821 5821 5820 5820 5820
5868 5866 5863 5861 5859 5857 5855 5853 5851 5849 5847 5845 5843 5842 5840 5838 5836 5834 5832 5830 5828 5827 5826 5825 5824 5823 5822 5821 5820 5820 5819 5818 5818 5817 5816 5815 5814 5814 5813 5813 5812 5812 5812
5864 5861 5859 5857 5856 5854 5851 5849 5847 5844 5842 5840 5838 5836 5834 5832 5830 5828 5826 5824 5823 5821 5820 5818 5817 5816 5815 5814 5813 5812 5811 5810 5810 5809 5808 5808 5807 5806 5805 5804 5804 5804 5804
5860 5857 5855 5853 5851 5849 5847 5844 5841 5839 5837 5835 5833 5830 5828 5826 5824 5822 5820 5818 5816 5815 5813 5812 5810 5809 5808 5807 5806 5805 5804 5803 5802 5801 5800 5800 5799 5798 5797 5796 5795 5795 5795
5855 5853 5851 5848 5846 5844 5842 5839 5836 5834 5831 5829 5827 5824 5822 5819 5817 5815 5814 5812 5810 5808 5806 5805 5803 5802 5801 5799 5798 5797 5796 5795 5794 5793 5792 5792 5791 5790 5789 5788 5787 5786 5786
5850 5848 5845 5843 5841 5839 5836 5833 5831 5828 5825 5822 5820 5817 5815 5812 5810 5808 5806 5805 5803 5801 5799 5797 5795 5794 5793 5791 5790 5788 5787 5786 5786 5785 5784 5783 5782 5781 5780 5779 5778 5777 5777
5845 5842 5840 5838 5835 5833 5830 5827 5825 5822 5819 5816 5813 5810 5807 5805 5802 5800 5799 5797 5795 5793 5791 5789 5787 5786 5785 5784 5782 5780 5779 5778 5777 5776 5775 5774 5773 5772 5771 5770 5769 5768 5767
5839 5837 5834 5832 5829 5827 5824 5821 5818 5815 5812 5808 5805 5802 5800 5797 5794 5792 5791 5789 5787 5786 5784 5782 5780 5779 5777 5776 5774 5773 5771 5769 5768 5767 5766 5765 5764 5762 5761 5760 5759 5758 5757
5834 5831 5828 5826 5823 5820 5817 5814 5811 5808 5805 5802 5799 5796 5793 5790 5787 5784 5783 5781 5780 5778 5776 5774 5772 5771 5769 5767 5766 5764 5763 5761 5760 5759 5757 5756 5754 5753 5751 5750 5749 5748 5748
5827 5824 5822 5819 5816 5813 5810 5807 5804 5801 5798 5795 5792 5789 5786 5783 5780 5778 5776 5774 5772 5770 5767 5766 5764 5762 5761 5759 5757 5756 5754 5753 5751 5750 5748 5747 5745 5744 5742 5741 5740 5739 5738
5820 5817 5814 5811 5808 5805 5803 5800 5797 5794 5791 5788 5785 5782 5779 5776 5773 5771 5768 5766 5764 5762 5760 5758 5756 5754 5752 5751 5749 5747 5746 5744 5742 5741 5739 5737 5736 5734 5732 5731 5730 5729 5728
5812 5809 5806 5803 5800 5798 5795 5793 5790 5787 5784 5781 5778 5775 5772 5769 5766 5763 5761 5759 5756 5754 5752 5749 5747 5745 5744 5742 5741 5739 5737 5735 5733 5731 5729 5727 5725 5724 5722 5721 5720 5719 5718
5804 5802 5799 5796 5793 5790 5787 5785 5782 5779 5776 5773 5770 5767 5764 5761 5758 5756 5753 5751 5748 5746 5744 5741 5739 5737 5736 5734 5732 5730 5728 5726 5724 5722 5720 5718 5715 5714 5712 5711 5710 5709 5709
5796 5793 5791 5788 5785 5782 5780 5777 5774 5772 5768 5766 5762 5759 5756 5754 5751 5748 5745 5743 5741 5738 5736 5733 5731 5729 5727 5725 5723 5721 5719 5717 5714 5712 5710 5708 5706 5704 5703 5701 5700 5700 5699
5788 5785 5782 5780 5777 5774 5772 5769 5766 5763 5760 5757 5754 5751 5748 5746 5743 5741 5738 5736 5733 5730 5728 5725 5723 5721 5718 5716 5714 5712 5709 5707 5705 5703 5700 5698 5696 5695 5693 5692 5691 5690 5690
5780 5777 5774 5771 5769 5766 5764 5761 5758 5755 5752 5749 5746 5743 5741 5738 5735 5732 5730 5727 5725 5722 5720 5717 5715 5712 5710 5707 5705 5703 5700 5698 5696 5693 5691 5689 5687 5685 5683 5682 5682 5681 5681
5771 5769 5766 5763 5761 5758 5755 5753 5750 5747 5745 5742 5738 5735 5732 5729 5727 5724 5721 5719 5716 5713 5711 5709 5706 5704 5701 5698 5696 5694 5691 5689 5687 5684 5682 5680 5678 5676 5674 5673 5673 5673 5673
5763 5760 5758 5755 5752 5749 5747 5744 5742 5739 5736 5733 5730 5727 5724 5721 5718 5716 5713 5710 5707 5705 5702 5700 5698 5695 5693 5690 5687 5685 5682 5680 5677 5675 5673 5671 5669 5668 5666 5665 5665 5664 5664
5755 5752 5749 5746 5744 5741 5738 5735 5733 5730 5727 5725 5722 5719 5716 5713 5710 5708 5705 5702 5699 5696 5694 5692 5689 5687 5684 5681 5679 5676 5674 5671 5669 5666 5664 5663 5661 5659 5658 5657 5656 5656 5655
5746 5744 5741 5738 5735 5732 5729 5726 5724 5721 5719 5716 5714 5711 5708 5705 5702 5699 5696 5694 5691 5688 5686 5683 5681 5678 5675 5673 5670 5668 5665 5663 5660 5658 5656 5655 5653 5651 5650 5649 5648 5647 5647
5738 5735 5732 5729 5726 5723 5720 5718 5715 5712 5710 5707 5704 5702 5699 5696 5693 5691 5688 5685 5682 5679 5676 5674 5671 5669 5667 5664 5662 5659 5657 5654 5652 5650 5648 5646 5645 5643 5642 5640 5639 5639 5638
5730 5727 5724 5721 5718 5715 5712 5709 5706 5703 5701 5698 5695 5692 5690 5687 5685 5682 5679 5676 5673 5670 5667 5665 5662 5660 5657 5655 5653 5650 5648 5646 5644 5642 5640 5638 5636 5635 5633 5632 5631 5630 5630
5723 5719 5716 5713 5710 5707 5704 5701 5698 5694 5692 5689 5686 5683 5681 5678 5675 5673 5670 5667 5664 5661 5659 5656 5653 5651 5648 5646 5643 5641 5639 5637 5635 5633 5632 5630 5628 5627 5625 5624 5623 5622 5621
5715 5712 5709 5705 5702 5699 5695 5692 5689 5686 5683 5680 5677 5674 5672 5669 5666 5663 5661 5658 5655 5653 5650 5647 5644 5642 5639 5637 5634 5632 5631 5629 5627 5625 5623 5622 5620 5619 5617 5616 5615 5614 5613
5708 5705 5702 5698 5695 5691 5688 5685 5682 5678 5675 5672 5669 5666 5663 5660 5657 5654 5651 5649 5646 5644 5641 5638 5636 5633 5630 5628 5626 5624 5622 5620 5618 5617 5615 5613 5612 5610 5609 5608 5607 5606 5605